Weather History for KPBF - April, 2013

Change the Weather History Date:

Friday, April 19, 2013

  Actual Average Record
Temperature  
Mean Temperature 51 °F 64 °F  
Max Temperature 59 °F 75 °F 94 °F (1987)
Min Temperature 42 °F 53 °F 32 °F (1893)
Degree Days  
Heating Degree Days 14 3  
Month to date heating degree days 132 102  
Since 1 July heating degree days 2837 2837  
Cooling Degree Days 0 2  
Month to date cooling degree days 45 32  
Year to date cooling degree days 53 52  
Moisture  
Dew Point 32 °F    
Average Humidity 53    
Maximum Humidity 76    
Minimum Humidity 30    
Precipitation  
Precipitation 0.00 in 0.17 in 3.90 in (1918)
Month to date precipitation 4.69 3.11  
Year to date precipitation 19.82 16.33  
Snow  
Snow 0.00 in 0.00 in - ()
Month to date snowfall 0.0 0.0  
Since 1 July snowfall 2.1 3.1  
Snow Depth 0.00 in    
Sea Level Pressure  
Sea Level Pressure 30.09 in    
Wind  
Wind Speed 10 mph (WNW)    
Max Wind Speed 22 mph    
Max Gust Speed 30 mph    
Visibility 10 miles    
Events      
T = Trace of Precipitation, MM = Missing Value Source: NWS Daily Summary

Daily Weather History Graph

Daily Weather History Graph

Search for Another Location

Airport or City:

Trip Planner

Search our weather history database for the weather conditions in past years. The results will help you decide how hot, cold, wet, or windy it might be!

Date:

Astronomy

Apr. 19, 2013 Rise Set
Actual Time 6:31 AM CDT 7:42 PM CDT
Civil Twilight 6:05 AM CDT 8:08 PM CDT
Nautical Twilight 5:34 AM CDT 8:39 PM CDT
Astronomical Twilight 5:02 AM CDT 9:11 PM CDT
Moon 1:43 PM CDT (4/19) 2:30 AM CDT (4/19)
Length of Visible Light 14h 03m
Length of Day
13h 11m
First Quarter, 62% of the Moon is Illuminated
Apr 19
First Quarter
Apr 25
Full
May 2
Last Quarter
May 9
New
May 17
First Quarter

Hourly Weather History & Observations

Time (CDT) Temp. Windchill Dew Point Humidity Pressure Visibility Wind Dir Wind Speed Gust Speed Precip Events Conditions
12:28 AM 46.4 °F 40.7 °F 37.4 °F 71% 29.99 in 10.0 mi WNW 12.7 mph 19.6 mph N/A   Overcast
12:53 AM 46.0 °F 40.2 °F 37.0 °F 71% 30.00 in 10.0 mi WNW 12.7 mph - N/A   Overcast
1:53 AM 44.1 °F 38.6 °F 37.0 °F 76% 30.00 in 10.0 mi West 10.4 mph - N/A   Overcast
2:53 AM 44.1 °F 39.5 °F 36.0 °F 73% 29.99 in 10.0 mi West 8.1 mph - N/A   Mostly Cloudy
3:53 AM 44.1 °F 38.1 °F 33.1 °F 65% 29.99 in 10.0 mi WNW 11.5 mph - N/A   Mostly Cloudy
4:53 AM 44.1 °F 40.1 °F 33.1 °F 65% 30.02 in 10.0 mi West 6.9 mph - N/A   Overcast
5:53 AM 43.0 °F 37.2 °F 33.1 °F 68% 30.05 in 10.0 mi West 10.4 mph 17.3 mph N/A   Overcast
6:53 AM 42.1 °F 33.9 °F 28.9 °F 60% 30.09 in 10.0 mi WNW 17.3 mph 23.0 mph N/A   Mostly Cloudy
7:53 AM 42.1 °F 35.7 °F 30.0 °F 62% 30.10 in 10.0 mi West 11.5 mph - N/A   Clear
8:53 AM 44.1 °F 36.2 °F 28.0 °F 53% 30.11 in 10.0 mi WNW 18.4 mph 26.5 mph N/A   Clear
9:53 AM 46.9 °F - 28.0 °F 48% 30.11 in 10.0 mi West 15.0 mph 27.6 mph N/A   Clear
10:53 AM 48.9 °F - 28.9 °F 46% 30.11 in 10.0 mi WNW 9.2 mph 19.6 mph N/A   Clear
11:53 AM 51.1 °F - 28.9 °F 43% 30.12 in 10.0 mi WNW 12.7 mph 21.9 mph N/A   Clear
12:53 PM 54.0 °F - 30.9 °F 41% 30.11 in 10.0 mi NW 17.3 mph 26.5 mph N/A   Clear
1:53 PM 55.0 °F - 30.0 °F 38% 30.11 in 10.0 mi West 15.0 mph 24.2 mph N/A   Clear
2:53 PM 57.0 °F - 30.9 °F 37% 30.10 in 10.0 mi WNW 17.3 mph 21.9 mph N/A   Clear
3:53 PM 57.9 °F - 30.0 °F 35% 30.08 in 10.0 mi NW 11.5 mph 16.1 mph N/A   Clear
4:53 PM 59.0 °F - 30.0 °F 33% 30.08 in 10.0 mi WNW 12.7 mph 19.6 mph N/A   Clear
5:53 PM 57.9 °F - 27.0 °F 31% 30.09 in 10.0 mi WNW 11.5 mph 19.6 mph N/A   Clear
6:53 PM 57.0 °F - 28.9 °F 34% 30.09 in 10.0 mi WNW 9.2 mph - N/A   Clear
7:53 PM 54.0 °F - 33.1 °F 45% 30.12 in 10.0 mi WSW 3.5 mph - N/A   Clear
8:53 PM 51.1 °F - 35.1 °F 54% 30.15 in 10.0 mi SW 3.5 mph - N/A   Clear
9:53 PM 48.9 °F - 36.0 °F 61% 30.17 in 10.0 mi Calm Calm - N/A   Clear
10:53 PM 48.0 °F - 39.9 °F 74% 30.18 in 10.0 mi Calm Calm - N/A   Clear
11:53 PM 46.0 °F 44.8 °F 37.0 °F 71% 30.18 in 10.0 mi WSW 3.5 mph - N/A   Clear